星链-1067 (STARLINK-1067 )

导读 | 星芒AI

STARLINK-1067 是 SpaceX Starlink 项目中的一颗低轨通信卫星,属于第 11 批组网发射的卫星之一。该卫星于 2020 年 11 月 19 日由猎鹰 9 号火箭送入近地轨道,旨在为全球提供高速互联网服务。它运行在约 550 公里的高度,设计寿命为 5 年,具备激光通信和自动避障功能,有助于提升网络稳定性和减少太空碎片风险。STARLINK-1067 是 SpaceX 构建全球宽带网络计划的重要组成部分。

基本信息
目录编号:
44771
目录名称:
STARLINK-1067
国际标识:
2019-074BL
轨道中心:
EARTH
卫星名称:
星链-1067
卫星全名:
星链-1067 (STARLINK-1067 )
卫星状态:
在轨 (已飞行2179 天)
发射日期:
2019-11-11 UTC
国别 :
美国 (US)
星等 :
--
轨道信息
数据来源 国际轨道数据 AOE轨道数据
星历时间 2025-10-28T12:25:30+0800
1天前
查看轨道信息
2025-10-24T16:00:00+0800
4天前
查看轨道信息
半长轴 6925.334km 6925.349km
偏心率 0.0001343 0.0001591
轨道倾角 53.054° 53.052°
近地点辐角 95.765° 66.872°
升交点赤经 101.456° 118.746°
平近点角 264.349° 277.346°
近地点 546.268km 546.112km
远地点 548.13km 548.316km
周期 95.592分钟 95.592分钟
每日圈数 15.064049 15.063999
详细信息
固有亮度:
5
最大亮度:
2.5
卫星平台:
Starlink V1.0
覆盖范围:
全球
运营商:
太空探索技术公司
运营商所在国:
美国
制造商(研发单位):
太空探索技术公司
制造商所在国:
美国
使用方式:
暂无
卫星简介
星链(Starlink)计划是由太空探索技术公司(SpaceX)提出的一个巨型低轨卫星互联网星座项目,计划在2019年至2024年间在太空搭建由约1.2万颗卫星组成的“星链”网络,其中1584颗将部署在地球上空550千米处的近地轨道,并从2020年开始工作。该卫星仍在工作。
2D轨道图
3D轨道图
轨道高度分析图
轨道倾角分析图
轨道综合分析图
查看轨道综合分析图